Regional Weather Roundup
Issued by NWS Upton, NY

Current Version | Previous Version | Graphics & Text | Print | Product List | Glossary Off
Versions: 1 2 3 4 5 6 7 8 9 10 11 12 13 14 15 16 17 18 19 20 21 22 23 24 25 26 27 28 29 30 31 32 33 34 35 36 37 38 39 40 41 42 43 44 45 46 47 48 49 50

000
ASUS41 KOKX 300804
RWROKX

REGIONAL WEATHER ROUNDUP
NATIONAL WEATHER SERVICE NEW YORK NY
400 AM EDT SAT JUL 30 2016

NOTE: "FAIR" INDICATES FEW OR NO CLOUDS BELOW 12,000 FEET WITH NO
SIGNIFICANT WEATHER AND/OR OBSTRUCTIONS TO VISIBILITY.

NYZ071-072-176-178-NJZ106-104-300900-
NEW YORK CITY METRO AREA

CITY           SKY/WX    TMP DP  RH WIND       PRES   REMARKS
Central Park   CLEAR     75  69  81 W3        29.97R
LaGuardia APRT PTCLDY    78  70  76 SW5       29.93S
Kennedy INTL   PTCLDY    74  70  87 SW12      29.95R
Newark/Liberty PTCLDY    75  69  81 SW6       29.94R
Bronx Bot Gard   N/A     72  68  88 N1        29.97R
Wall St Helipt SUNNY     75  72  88 W5        29.95S
Teterboro      CLEAR     73  67  81 CALM      29.93R
$$

NYZ177-179-078>081-300900-
LONG ISLAND NEW YORK

CITY           SKY/WX    TMP DP  RH WIND       PRES   REMARKS
Farmingdale    PTCLDY    73  70  90 SW3       29.94S
MacArthur/ISP  PTCLDY    72  71  97 CALM      29.94R
Shirley        CLEAR     68  67  96 CALM      29.95R FOG
Riverhead      NOT AVBL
Westhampton    CLEAR     65  62  90 CALM      29.96S
Southhampton     N/A     68  66  94 CALM      29.91S
Bridgehampton    N/A     66  66 100 CALM      29.94S
East Hampton   FAIR      64  63  97 CALM      29.94S
Montauk          N/A     72  69  90 W3        29.95S
$$

NYZ052-065-067-300900-
HUDSON VALLEY

CITY           SKY/WX    TMP DP  RH WIND       PRES   REMARKS
White Plains   CLOUDY    70  67  90 CALM      29.95R
Newburgh       CLEAR     70  63  78 CALM      29.99R
Montgomery     FOG       67  67 100 CALM      29.97R VSB 3/4
Poughkeepsie   CLEAR     70  62  76 CALM      29.96R
Albany         CLOUDY    65  58  78 N6        30.00R
$$

NJZ001-105-106-008-010-013-015-019>022-104-300900-
NEW JERSEY

CITY           SKY/WX    TMP DP  RH WIND       PRES   REMARKS
Newark/Liberty PTCLDY    75  69  81 SW6       29.94R
Teterboro      CLEAR     73  67  81 CALM      29.93R
Caldwell       CLEAR     71  69  93 CALM      29.96R
Morristown     FOG       66  63  88 CALM      29.95S VSB 3/4
Somerville     CLEAR     69  67  93 CALM      29.93S FOG
Linden         FAIR      74  70  86 CALM      29.96S
Sussex         FOG       68  68 100 CALM      29.97S VSB 1/4
Abdover          N/A     65  64  97 CALM      29.98R
Trenton        PTCLDY    71  69  93 N3        29.94F
Millville      CLEAR     71  69  93 CALM      29.94F FOG
Atlantic City  CLEAR     71  68  90 CALM      29.94S
Wrightstown    NOT AVBL
Toms River     CLEAR     68  67  96 CALM      29.96R
Belmar         CLEAR     70  69  97 SW5       29.96S
$$

PAZ047>061-062-071-300900-
EASTERN PENNSYLVANIA

CITY           SKY/WX    TMP DP  RH WIND       PRES   REMARKS
Philadelphia   MOCLDY    75  72  90 S5        29.94F
Allentown      CLOUDY    73  69  87 CALM      29.96S
Scranton       CLOUDY    70  63  78 E5        29.98S
$$

CTZ002-004>006-009-010-012-RIZ004-006-007-MAZ004-011-015-300900-
SOUTHERN NEW ENGLAND
 IN CT

CITY           SKY/WX    TMP DP  RH WIND       PRES   REMARKS
Bradley INTL   CLEAR     68  63  84 N8        29.96S
Hartford       CLEAR     73  68  84 N3        29.95R
Danbury        CLEAR     67  65  93 CALM      29.97S
Wtrbury/Oxford   N/A     68  63  83 NE5       29.99R
Bridgeport     PTCLDY    73  69  87 CALM      29.94R
Meriden        CLOUDY    69  66  90 CALM      29.95S
New Haven      MOCLDY    70  69  97 CALM      29.95R
Chester        PTSUNNY   68  68 100 MISG      29.96S
Groton         CLEAR     72  68  87 CALM      29.94R
Wilimantic     CLEAR     68  68 100 CALM      29.96R

 IN RI

CITY           SKY/WX    TMP DP  RH WIND       PRES   REMARKS
Providence     CLEAR     70  67  90 NW3       29.94S
Block Island   CLEAR     69  67  93 NW5       29.95R
Westerly       CLEAR     69  65  86 CALM      29.95R
 IN MA

CITY           SKY/WX    TMP DP  RH WIND       PRES   REMARKS
Boston         PTCLDY    73  67  81 NW5       29.94R
Worchester     CLEAR     65  60  84 W3        29.99R
Westfield      PTCLDY    65  63  93 N5        29.97R
Provincetown   CLOUDY    68  67  96 N7        29.94R
Nantucket      PTCLDY    70  67  90 N7        29.92R
$$

ANZ330-335-338-340-345-350-353-355-300900-
COASTAL MARINE OBSERVATIONS


STATION/POSITION TIME  SKY/WX   TEMP    WIND        PRES    VSBY  WAVE
                                AIR SEA DIR/SP/G                  HT/PER
                 (UTC)          (F)     (DEG/KT/KT) (MB)    (MI)  (FT/S)
NY HARB ENTRANCE NOT AVBL
20S FIRE ISLAND  NOT AVBL
GREAT SOUTH BAY  0700            76 81  230/  8/ 10   N/A
23 SSW MONTAUK P NOT AVBL
15 E BARNEGAT LI 0730               78                N/A           3/ 6
HUDSON CANYON    NOT AVBL
KINGS POINT      0700            74 75              1013.4
EXECUTION ROCKS  0700            74      CALM  /  4   N/A
CENTRAL LI SOUND 0700            75 75  230/  8/ 10   N/A           1
EASTERN LI SOUND 0700            71 69  280/  6/  6   N/A
ROBBINS REEF     0700            76     230/  3/  4 1013.1
$$


>>>>>>>>>>>>>>>>>>>>>>>>>>>> KEY <<<<<<<<<<<<<<<<<<<<<<<<<<<
>                                                          <
>     SKY/WX - Sky Condition/Present Weather               <
>     TMP    - Temperature in Fahrenheit                   <
>     DP     - Dew Point in Fahrenheit                     <
>     RH     - Relative Humidity in Percent                <
>     WIND   - Direction (from) and Speed in MPH           <
>     PRES   - Mean Sea Level Pressure (inches of Hg)      <
>     WCI    - Wind Chill Index                            <
>     VSB    - VISIBILITY IN MILES                         <
>     HX     - HEAT INDEX                                  <
>     TC     - TEMPERATURE IN CELSIUS                      <
>     VRB    - VARIABLE WIND DIRECTION                     <
>                                                          <
>>>>>>>>>>>>>>>>>>>>>>>>>>>> KEY <<<<<<<<<<<<<<<<<<<<<<<<<<<



USA.gov is the U.S. government's official web portal to all federal, state and local government web resources and services.